User: anonymous   Login
Location: Sawmill Trailhead
(33.5800°N, 116.4497°W)
Time: 04:55:39
(UTC-07:00)
Language:

Uosat F - Orbit

View from above orbital plane
View from above orbital plane
View from above satellite
View from above satellite

Ground track
Ground track

The orbit data is extracted from the following two-line orbital elements,

1 21575U 91050B   17234.95691402 +.00000012 +00000-0 +18284-4 0  9998
2 21575 098.7556 252.9497 0008457 100.3772 259.8370 14.40808127370698
Epoch (UTC): 22 August 2017 22:57:57
Eccentricity: 0.0008457
inclination: 98.7556°
perigee height: 750 km
apogee height: 762 km
right ascension of ascending node: 252.9497°
argument of perigee: 100.3772°
revolutions per day: 14.40808127
mean anomaly at epoch: 259.8370°
orbit number at epoch: 37069

The dashed part of the orbit path shows where the satellite is in the earth's shadow,  

DLR